When you browse on this site, cookies collect data to enhance your experience and personalize the content and advertising you see.
Visit our Privacy Policy to learn more. By continuing to use the site, you agree to this use of cookies and data.
  • Em Portugal
  • Lista de países
  • Para 7 dias
  • Temperatura da água
  • Mapa do tempo
  • Widgets de tempo
  • user-avatar
    Iniciar Sessão

    Previsão horária em Hovanschina

    Hoje, 25 Agosto, Domingo

    Tempo Temperatura Precipitação Vento Pressão Humidade
    00:00 +14°C° 0 mm 2 m/s 742 mmHg 70%
    01:00 +14°C° 0 mm 2 m/s 742 mmHg 73%
    02:00 +13°C° 0 mm 3 m/s 742 mmHg 76%
    03:00 +12°C° 0 mm 3 m/s 742 mmHg 79%
    04:00 +12°C° 0 mm 3 m/s 742 mmHg 82%
    05:00 +12°C° 0 mm 3 m/s 742 mmHg 85%
    06:00 +12°C° 0 mm 3 m/s 742 mmHg 88%
    07:00 +14°C° 0 mm 4 m/s 742 mmHg 84%
    08:00 +15°C° 0 mm 4 m/s 742 mmHg 80%
    09:00 +18°C° 0 mm 4 m/s 742 mmHg 76%
    10:00 +19°C° 0 mm 5 m/s 743 mmHg 70%
    11:00 +19°C° 0 mm 5 m/s 743 mmHg 64%
    12:00 +20°C° 0 mm 5 m/s 743 mmHg 58%
    13:00 +20°C° 0 mm 6 m/s 743 mmHg 60%
    14:00 +20°C° 0 mm 6 m/s 743 mmHg 61%
    15:00 +18°C° 0 mm 7 m/s 744 mmHg 62%
    16:00 +17°C° 0 mm 6 m/s 744 mmHg 67%
    17:00 +16°C° 0 mm 5 m/s 744 mmHg 71%
    18:00 +16°C° 0 mm 3 m/s 744 mmHg 75%
    19:00 +14°C° 0 mm 3 m/s 744 mmHg 79%
    20:00 +13°C° 0 mm 3 m/s 745 mmHg 84%
    21:00 +12°C° 0 mm 3 m/s 745 mmHg 88%
    22:00 +11°C° 0 mm 3 m/s 745 mmHg 90%
    23:00 +11°C° 0 mm 3 m/s 746 mmHg 92%

    Amanhã, 26 Agosto, Segunda-feira

    Tempo Temperatura Precipitação Vento Pressão Humidade
    00:00 +10°C° 0 mm 3 m/s 746 mmHg 94%
    01:00 +10°C° 0 mm 2 m/s 746 mmHg 94%
    02:00 +9°C° 0 mm 2 m/s 746 mmHg 94%
    03:00 +9°C° 0 mm 2 m/s 747 mmHg 95%
    04:00 +9°C° 0 mm 2 m/s 747 mmHg 95%
    05:00 +9°C° 0 mm 2 m/s 747 mmHg 95%
    06:00 +9°C° 0 mm 2 m/s 747 mmHg 95%
    07:00 +12°C° 0 mm 2 m/s 747 mmHg 88%
    08:00 +13°C° 0 mm 2 m/s 747 mmHg 80%
    09:00 +15°C° 0 mm 2 m/s 748 mmHg 73%
    10:00 +16°C° 0 mm 2 m/s 748 mmHg 68%
    11:00 +17°C° 0 mm 2 m/s 747 mmHg 62%
    12:00 +18°C° 0 mm 2 m/s 747 mmHg 57%
    13:00 +19°C° 0 mm 2 m/s 747 mmHg 56%
    14:00 +19°C° 0 mm 2 m/s 747 mmHg 55%
    15:00 +20°C° 0 mm 3 m/s 746 mmHg 54%
    16:00 +19°C° 0 mm 2 m/s 746 mmHg 59%
    17:00 +18°C° 0 mm 2 m/s 746 mmHg 64%
    18:00 +19°C° 0 mm 1 m/s 745 mmHg 69%
    19:00 +16°C° 0 mm 1 m/s 745 mmHg 72%
    20:00 +15°C° 0 mm 2 m/s 745 mmHg 75%
    21:00 +13°C° 0 mm 2 m/s 745 mmHg 78%
    22:00 +13°C° 0 mm 2 m/s 744 mmHg 79%
    23:00 +13°C° 0 mm 2 m/s 744 mmHg 80%

    Depois de amanhã, 27 Agosto, Terça-feira

    Tempo Temperatura Precipitação Vento Pressão Humidade
    00:00 +12°C° 0 mm 3 m/s 744 mmHg 81%
    01:00 +12°C° 0 mm 3 m/s 743 mmHg 81%
    02:00 +11°C° 0 mm 3 m/s 743 mmHg 82%
    03:00 +11°C° 0 mm 4 m/s 742 mmHg 82%
    04:00 +12°C° 0 mm 4 m/s 742 mmHg 80%
    05:00 +12°C° 0 mm 4 m/s 741 mmHg 78%
    06:00 +12°C° 0 mm 5 m/s 741 mmHg 76%
    07:00 +13°C° 0 mm 5 m/s 740 mmHg 75%
    08:00 +14°C° 0 mm 6 m/s 740 mmHg 73%
    09:00 +16°C° 0 mm 6 m/s 739 mmHg 72%
    10:00 +16°C° 0.3 mm 6 m/s 739 mmHg 72%
    11:00 +17°C° 0.3 mm 6 m/s 738 mmHg 72%
    12:00 +19°C° 0.3 mm 6 m/s 738 mmHg 72%
    13:00 +19°C° 0.7 mm 6 m/s 737 mmHg 73%
    14:00 +19°C° 0.7 mm 6 m/s 737 mmHg 74%
    15:00 +19°C° 0.7 mm 6 m/s 736 mmHg 75%
    16:00 +17°C° 1.5 mm 6 m/s 736 mmHg 78%
    17:00 +17°C° 1.5 mm 5 m/s 735 mmHg 81%
    18:00 +16°C° 1.5 mm 5 m/s 735 mmHg 84%
    19:00 +15°C° 0.4 mm 5 m/s 735 mmHg 87%
    20:00 +13°C° 0.4 mm 4 m/s 735 mmHg 89%
    21:00 +12°C° 0.4 mm 4 m/s 735 mmHg 91%
    22:00 +10°C° 0 mm 5 m/s 735 mmHg 91%
    23:00 +10°C° 0 mm 5 m/s 735 mmHg 91%

    28 Agosto, Quarta-feira

    Tempo Temperatura Precipitação Vento Pressão Humidade
    00:00 +9°C° 0 mm 5 m/s 735 mmHg 91%
    01:00 +8°C° 0 mm 5 m/s 735 mmHg 90%
    02:00 +7°C° 0 mm 6 m/s 736 mmHg 89%
    03:00 +5°C° 0 mm 6 m/s 736 mmHg 88%
    04:00 +5°C° 0 mm 6 m/s 736 mmHg 85%
    05:00 +5°C° 0 mm 6 m/s 736 mmHg 82%
    06:00 +4°C° 0 mm 6 m/s 737 mmHg 79%
    07:00 +4°C° 0.1 mm 7 m/s 737 mmHg 79%
    08:00 +5°C° 0.1 mm 7 m/s 737 mmHg 78%
    09:00 +5°C° 0.1 mm 7 m/s 737 mmHg 77%
    10:00 +5°C° 0 mm 7 m/s 737 mmHg 75%
    11:00 +6°C° 0 mm 7 m/s 738 mmHg 73%
    12:00 +6°C° 0 mm 7 m/s 738 mmHg 71%
    13:00 +6°C° 0 mm 7 m/s 738 mmHg 71%
    14:00 +6°C° 0 mm 7 m/s 738 mmHg 70%
    15:00 +8°C° 0 mm 7 m/s 739 mmHg 69%
    16:00 +6°C° 0 mm 7 m/s 739 mmHg 71%
    17:00 +6°C° 0 mm 7 m/s 739 mmHg 73%
    18:00 +7°C° 0 mm 6 m/s 739 mmHg 75%
    19:00 +7°C° 0 mm 6 m/s 739 mmHg 75%
    20:00 +5°C° 0 mm 6 m/s 739 mmHg 74%
    21:00 +5°C° 0 mm 6 m/s 739 mmHg 73%
    22:00 +5°C° 0 mm 6 m/s 739 mmHg 76%
    23:00 +6°C° 0 mm 5 m/s 739 mmHg 79%

    29 Agosto, Quinta-feira

    Tempo Temperatura Precipitação Vento Pressão Humidade
    00:00 +5°C° 0 mm 5 m/s 739 mmHg 82%
    01:00 +5°C° 0 mm 5 m/s 739 mmHg 82%
    02:00 +3°C° 0 mm 5 m/s 739 mmHg 82%
    03:00 +3°C° 0 mm 6 m/s 739 mmHg 82%
    04:00 +3°C° 0 mm 6 m/s 740 mmHg 82%
    05:00 +3°C° 0 mm 6 m/s 740 mmHg 82%
    06:00 +3°C° 0 mm 6 m/s 740 mmHg 82%
    07:00 +4°C° 0 mm 7 m/s 740 mmHg 78%
    08:00 +5°C° 0 mm 7 m/s 740 mmHg 75%
    09:00 +6°C° 0 mm 8 m/s 740 mmHg 71%
    10:00 +7°C° 0 mm 8 m/s 740 mmHg 69%
    11:00 +9°C° 0 mm 7 m/s 741 mmHg 67%
    12:00 +10°C° 0 mm 7 m/s 741 mmHg 65%
    13:00 +9°C° 0 mm 7 m/s 741 mmHg 67%
    14:00 +9°C° 0 mm 6 m/s 741 mmHg 68%
    15:00 +9°C° 0 mm 6 m/s 741 mmHg 70%
    16:00 +8°C° 0 mm 6 m/s 742 mmHg 71%
    17:00 +8°C° 0 mm 5 m/s 742 mmHg 73%
    18:00 +8°C° 0 mm 5 m/s 742 mmHg 74%
    19:00 +8°C° 0 mm 4 m/s 742 mmHg 77%
    20:00 +7°C° 0 mm 4 m/s 742 mmHg 79%
    21:00 +7°C° 0 mm 3 m/s 742 mmHg 82%
    22:00 +7°C° 0 mm 3 m/s 742 mmHg 83%
    23:00 +7°C° 0 mm 3 m/s 742 mmHg 84%

    30 Agosto, Sexta-feira

    Tempo Temperatura Precipitação Vento Pressão Humidade
    00:00 +7°C° 0 mm 3 m/s 742 mmHg 85%
    01:00 +5°C° 0 mm 3 m/s 742 mmHg 87%
    02:00 +4°C° 0 mm 3 m/s 742 mmHg 89%
    03:00 +4°C° 0 mm 3 m/s 742 mmHg 91%
    04:00 +4°C° 0 mm 3 m/s 742 mmHg 91%
    05:00 +4°C° 0 mm 3 m/s 742 mmHg 90%
    06:00 +3°C° 0 mm 3 m/s 742 mmHg 90%
    07:00 +5°C° 0 mm 4 m/s 742 mmHg 82%
    08:00 +7°C° 0 mm 4 m/s 742 mmHg 74%
    09:00 +9°C° 0 mm 5 m/s 742 mmHg 66%
    10:00 +10°C° 0 mm 5 m/s 742 mmHg 63%
    11:00 +12°C° 0 mm 5 m/s 742 mmHg 60%
    12:00 +13°C° 0 mm 4 m/s 742 mmHg 57%
    13:00 +13°C° 0 mm 5 m/s 741 mmHg 60%
    14:00 +12°C° 0 mm 5 m/s 741 mmHg 63%
    15:00 +12°C° 0 mm 5 m/s 741 mmHg 66%
    16:00 +9°C° 0.3 mm 5 m/s 741 mmHg 73%
    17:00 +8°C° 0.3 mm 4 m/s 741 mmHg 81%
    18:00 +6°C° 0.3 mm 4 m/s 741 mmHg 88%
    19:00 +7°C° 0 mm 3 m/s 741 mmHg 91%
    20:00 +5°C° 0 mm 3 m/s 741 mmHg 93%
    21:00 +4°C° 0 mm 3 m/s 741 mmHg 95%
    22:00 +4°C° 0 mm 3 m/s 741 mmHg 96%
    23:00 +3°C° 0 mm 3 m/s 742 mmHg 96%
    Mostrar mais